Weather History for KICT - May, 2013

Change the Weather History Date:

Thursday, May 2, 2013

  Actual Average Record
Temperature  
Mean Temperature 43 °F 62 °F  
Max Temperature 51 °F 73 °F 92 °F (1955)
Min Temperature 35 °F 50 °F 33 °F (2005)
Degree Days  
Heating Degree Days 22 5  
Month to date heating degree days 31 10  
Since 1 July heating degree days 4389 4518  
Cooling Degree Days 0 1  
Month to date cooling degree days 0 2  
Year to date cooling degree days 16 28  
Moisture  
Dew Point 33 °F    
Average Humidity 68    
Maximum Humidity 100    
Minimum Humidity 36    
Precipitation  
Precipitation 0.70 in 0.13 in 2.46 in (1914)
Month to date precipitation 0.95 0.25  
Year to date precipitation 9.55 7.54  
Snow  
Snow T in 0.00 in T in (2013)
Month to date snowfall T 0.0  
Since 1 July snowfall 30.0 14.9  
Snow Depth 0.00 in    
Sea Level Pressure  
Sea Level Pressure 30.41 in    
Wind  
Wind Speed 20 mph (North)    
Max Wind Speed 32 mph    
Max Gust Speed 43 mph    
Visibility 7 miles    
Events Rain , Snow , Thunderstorm    
T = Trace of Precipitation, MM = Missing Value Source: NWS Daily Summary

Daily Weather History Graph

Daily Weather History Graph

Search for Another Location

Airport or City:

Trip Planner

Search our weather history database for the weather conditions in past years. The results will help you decide how hot, cold, wet, or windy it might be!

Date:

Astronomy

May. 02, 2013 Rise Set
Actual Time 6:32 AM CDT 8:21 PM CDT
Civil Twilight 6:04 AM CDT 8:49 PM CDT
Nautical Twilight 5:30 AM CDT 9:23 PM CDT
Astronomical Twilight 4:53 AM CDT 10:00 PM CDT
Moon 2:12 AM CDT 1:20 PM CDT
Length of Visible Light 14h 44m
Length of Day
13h 48m
Waning Gibbous, 47% of the Moon is Illuminated
May 2
Waning Gibbous
May 9
New
May 17
First Quarter
May 24
Full
May 31
Last Quarter

Hourly Weather History & Observations

Time (CDT) Temp. Windchill Dew Point Humidity Pressure Visibility Wind Dir Wind Speed Gust Speed Precip Events Conditions
12:35 AM 39.2 °F 28.3 °F 37.4 °F 93% 30.24 in 3.0 mi NNE 25.3 mph 38.0 mph 0.15 in Rain , Thunderstorm Heavy Thunderstorms and Rain
12:46 AM 39.2 °F 29.8 °F 37.4 °F 93% 30.25 in 3.0 mi North 18.4 mph 36.8 mph 0.20 in Rain , Thunderstorm Heavy Thunderstorms and Rain
12:53 AM 39.0 °F 29.6 °F 37.9 °F 96% 30.30 in 3.0 mi NNW 18.4 mph 27.6 mph 0.24 in Rain , Thunderstorm Heavy Thunderstorms and Rain
1:34 AM 37.4 °F 26.4 °F 37.4 °F 100% 30.29 in 2.0 mi North 23.0 mph 28.8 mph 0.24 in Rain , Thunderstorm Heavy Thunderstorms and Rain
1:53 AM 37.9 °F 27.6 °F 37.0 °F 97% 30.28 in 3.0 mi North 20.7 mph 28.8 mph 0.43 in Rain , Thunderstorm Heavy Thunderstorms and Rain
2:27 AM 39.2 °F 29.0 °F 37.4 °F 93% 30.29 in 10.0 mi North 21.9 mph 28.8 mph 0.02 in Rain Light Rain
2:42 AM 39.2 °F 28.5 °F 37.4 °F 93% 30.28 in 10.0 mi North 24.2 mph 32.2 mph 0.03 in Rain Light Rain
2:53 AM 39.0 °F 28.0 °F 37.0 °F 93% 30.28 in 10.0 mi North 25.3 mph 33.4 mph 0.03 in Rain Light Rain
3:53 AM 39.0 °F 29.3 °F 36.0 °F 89% 30.32 in 10.0 mi North 19.6 mph 29.9 mph 0.00 in   Overcast
4:53 AM 37.9 °F 26.3 °F 36.0 °F 93% 30.35 in 10.0 mi North 26.5 mph 35.7 mph 0.04 in Rain Light Rain
5:53 AM 37.0 °F 24.7 °F 35.1 °F 93% 30.33 in 7.0 mi North 28.8 mph 36.8 mph 0.02 in Rain Light Rain
6:53 AM 37.0 °F 25.1 °F 34.0 °F 89% 30.40 in 6.0 mi North 26.5 mph 36.8 mph 0.05 in Rain Light Rain
7:53 AM 37.0 °F 26.4 °F 35.1 °F 93% 30.46 in 4.0 mi North 20.7 mph 32.2 mph 0.04 in Rain Light Rain
8:05 AM 37.4 °F 25.6 °F 35.6 °F 93% 30.41 in 5.0 mi North 26.5 mph 36.8 mph 0.00 in Rain Ice Pellets
8:21 AM 35.6 °F 23.2 °F 33.8 °F 93% 30.40 in 3.0 mi North 26.5 mph 36.8 mph 0.01 in Rain Ice Pellets
8:29 AM 35.6 °F 23.7 °F 33.8 °F 93% 30.41 in 3.0 mi North 24.2 mph 38.0 mph 0.02 in Rain , Snow Light Snow
8:32 AM 35.6 °F 23.7 °F 33.8 °F 93% 30.41 in 3.0 mi North 24.2 mph 38.0 mph 0.02 in Rain Light Ice Pellets
8:53 AM 36.0 °F 24.4 °F 34.0 °F 93% 30.47 in 3.0 mi North 23.0 mph 28.8 mph 0.04 in Rain Light Ice Pellets
8:57 AM 35.6 °F 24.2 °F 33.8 °F 93% 30.44 in 4.0 mi North 21.9 mph 29.9 mph 0.01 in Rain Light Rain
9:14 AM 35.6 °F 24.2 °F 33.8 °F 93% 30.46 in 4.0 mi North 21.9 mph 31.1 mph 0.01 in Rain Light Ice Pellets
9:23 AM 35.6 °F 24.0 °F 33.8 °F 93% 30.46 in 2.5 mi North 23.0 mph 28.8 mph 0.03 in Rain , Snow Light Ice Pellets
9:48 AM 35.6 °F 24.8 °F 33.8 °F 93% 30.44 in 6.0 mi North 19.6 mph 35.7 mph 0.04 in Rain Light Ice Pellets
9:53 AM 36.0 °F 23.9 °F 34.0 °F 93% 30.48 in 6.0 mi North 25.3 mph 32.2 mph 0.05 in Rain Light Ice Pellets
9:58 AM 37.4 °F 26.1 °F 33.8 °F 87% 30.45 in 7.0 mi North 24.2 mph 32.2 mph 0.00 in Rain , Snow Light Snow
10:53 AM 37.0 °F 25.6 °F 35.1 °F 93% 30.48 in 5.0 mi North 24.2 mph 32.2 mph 0.00 in Rain , Snow Light Snow
11:30 AM 37.4 °F 24.6 °F 33.8 °F 87% 30.46 in 10.0 mi North 32.2 mph 39.1 mph 0.01 in Rain Light Rain
11:46 AM 39.2 °F 27.4 °F 33.8 °F 81% 30.46 in 10.0 mi North 29.9 mph 38.0 mph 0.01 in   Overcast
11:53 AM 39.0 °F 28.3 °F 33.1 °F 79% 30.49 in 10.0 mi North 24.2 mph 38.0 mph 0.01 in   Overcast
12:28 PM 39.2 °F 29.6 °F 33.8 °F 81% 30.47 in 10.0 mi North 19.6 mph 34.5 mph 0.00 in   Overcast
12:48 PM 39.2 °F 29.6 °F 33.8 °F 81% 30.47 in 10.0 mi North 19.6 mph 32.2 mph 0.00 in   Overcast
12:53 PM 39.9 °F 30.8 °F 34.0 °F 79% 30.49 in 10.0 mi North 18.4 mph 32.2 mph 0.00 in   Overcast
1:53 PM 43.0 °F 34.0 °F 32.0 °F 65% 30.48 in 10.0 mi North 21.9 mph 31.1 mph N/A   Overcast
2:53 PM 45.0 °F 35.8 °F 27.0 °F 49% 30.47 in 10.0 mi North 26.5 mph 36.8 mph N/A   Mostly Cloudy
3:53 PM 48.9 °F - 27.0 °F 43% 30.45 in 10.0 mi North 20.7 mph 34.5 mph N/A   Mostly Cloudy
4:53 PM 50.0 °F - 25.0 °F 38% 30.44 in 10.0 mi NNE 28.8 mph 34.5 mph N/A   Mostly Cloudy
5:53 PM 50.0 °F - 24.1 °F 36% 30.43 in 10.0 mi North 18.4 mph 34.5 mph N/A   Scattered Clouds
6:53 PM 48.9 °F - 28.9 °F 46% 30.42 in 10.0 mi NNE 18.4 mph 26.5 mph N/A   Scattered Clouds
7:53 PM 48.0 °F - 28.0 °F 46% 30.43 in 10.0 mi North 17.3 mph 27.6 mph N/A   Scattered Clouds
8:53 PM 46.0 °F 40.6 °F 28.0 °F 50% 30.44 in 10.0 mi North 11.5 mph 21.9 mph N/A   Scattered Clouds
9:53 PM 44.1 °F 38.6 °F 28.0 °F 53% 30.44 in 10.0 mi North 10.4 mph - N/A   Partly Cloudy
10:53 PM 41.0 °F 36.4 °F 30.0 °F 65% 30.43 in 10.0 mi North 6.9 mph - N/A   Partly Cloudy
11:53 PM 37.0 °F 32.4 °F 30.9 °F 79% 30.41 in 10.0 mi NW 5.8 mph - N/A   Partly Cloudy